Regional Weather Roundup
Issued by NWS New Orleans/Baton Rouge, LA

Home | Current Version | Previous Version | Graphics & Text | Print | Product List | Glossary On
Versions: 1 2 3 4 5 6 7 8 9 10 11 12 13 14 15 16 17 18 19 20 21 22 23 24 25 26 27 28 29 30 31 32 33 34 35 36 37 38 39 40 41 42 43 44 45 46 47 48 49 50
492
ASUS44 KLIX 240610
RWRLIX
NEW ORLEANS REGIONAL WEATHER ROUNDUP
NATIONAL WEATHER SERVICE NEW ORLEANS LA
100 AM CDT THU APR 24 2014

NOTE: "FAIR" INDICATES FEW OR NO CLOUDS BELOW 12,000 FEET WITH NO
      SIGNIFICANT WEATHER AND/OR OBSTRUCTIONS TO VISIBILITY.
      SKY/WX - SKY CONDITION AND SIGNIFICANT WEATHER.
      TMP - AIR TEMPERATURE.     DP    - DEWPOINT TEMPERATURE.
      RH  - RELATIVE HUMIDITY.   PRES  - PRESSURE.
      HI  - HEAT INDEX.          WCI   - WIND CHILL INDEX.

*  THESE STATIONS ARE NOT NWS OR FAA STATIONS AND ARE NOT UNDER
   NWS QUALITY CONTROL.

LAZ038-040-048-061>063-065>067-069-240700-
SOUTHEAST LOUISIANA

CITY           SKY/WX    TMP DP  RH WIND       PRES   REMARKS
N.O. AUDUBON   NOT AVBL
N.O. INTL ARPT   N/A     67  63  87 SW7       29.92S
6HR MIN TEMP:  67; 6HR MAX TEMP:  80;

N.O. LAKEFRONT   N/A     70  66  87 SW7       29.93R
6HR MIN TEMP:  69; 6HR MAX TEMP:  79;

N.O. DOWNTOWN*   N/A     72  63  73 S5        29.93R
6HR MIN TEMP:  72; 6HR MAX TEMP:  82;

SLIDELL          N/A     63  59  87 CALM      29.92S
6HR MIN TEMP:  61; 6HR MAX TEMP:  78;

BATON ROUGE      N/A     68  63  84 SW6       29.93R
6HR MIN TEMP:  68; 6HR MAX TEMP:  82;

BOOTHVILLE       N/A     69  67  93 S6        29.93F
6HR MIN TEMP:  69; 6HR MAX TEMP:  75;

BELLE CHASSE     N/A     63  60  90 CALM      29.92S
6HR MIN TEMP:  62; 6HR MAX TEMP:  76;

BOGALUSA*        N/A     61  58  88 CALM      29.94R
6HR MIN TEMP:  60; 6HR MAX TEMP:  79;

GALLIANO*        N/A     64  61  90 CALM      29.93R
6HR MIN TEMP:  64; 6HR MAX TEMP:  76;

NEW ROADS*       N/A     67  63  87 CALM      29.93F
6HR MIN TEMP:  66; 6HR MAX TEMP:  79;

GONZALES*        N/A     64  64  99 CALM      29.92S
6HR MIN TEMP:  63; 6HR MAX TEMP:  77;

HAMMOND*         N/A     66  61  82 CALM      29.94R
HOUMA*           N/A     65  62  89 CALM      29.93R
6HR MIN TEMP:  62; 6HR MAX TEMP:  76;

PORT FOURCHON* CLEAR     70  66  88 S5        29.94S

$$

MSZ070-080>082-240700-
SOUTHERN MISSISSIPPI

CITY           SKY/WX    TMP DP  RH WIND       PRES   REMARKS
MCCOMB           N/A     61  55  81 SW3       29.93R
6HR MIN TEMP:  57; 6HR MAX TEMP:  81;

GULFPORT         N/A     70  66  87 CALM      29.91F
6HR MIN TEMP:  70; 6HR MAX TEMP:  77;

BILOXI           N/A     68  67  96 SW6       29.92F
6HR MIN TEMP:  68; 6HR MAX TEMP:  73;

PASCAGOULA     FOG       61  61 100 CALM      29.92F VSB 1/4
6HR MIN TEMP:  61; 6HR MAX TEMP:  73;


$$

COASTAL OBSERVATIONS
LAKE AND NEARSHORE STATIONS

STATION/POSITION TIME  TEMP    WIND        PRES    WAVE
                       AIR SEA DIR/SP/G            HT/PER
                 (UTC) (F)     (DEG/KT/KT) (MB)    (FT/S)
PASCAGOULA       0600   70     220/  5/  6 1012.5
WAVELAND YACHT   0600   70 75  240/  4/  6 1012.3
GRAND ISLE       0600   70 72  210/  5/  6 1013.7
SOUTHWEST PASS   0600   67 60  190/  6/  7 1013.5
NEW CANAL        0600   70 72  220/  4/  5 1013.6
SHELL BEACH      0600   70 69  190/  4/  4 1012.8

OFFSHORE STATIONS

STATION/POSITION TIME  TEMP    WIND        PRES    WAVE
                       AIR SEA DIR/SP/G            HT/PER
                 (UTC) (F)     (DEG/KT/KT) (MB)    (FT/S)
64 S DAUPHIN ISL 0505   70 72  210/  6/  8 1013.7

$$




USA.gov is the U.S. government's official web portal to all federal, state and local government web resources and services.